Hourly Data Report for October 16, 2016

All times are specified in Local Standard Time (LST). Add 1 hour to adjust for Daylight Saving Time where and when it is observed.

QIKIQTARJUAQ A
NUNAVUT

67°32'48.000" N
64°01'54.000" W
5.50 m
2400577
YVM

Download Data

Hourly Data (October 2016)
Hourly Data Report for October 16, 2016
Temp Definition
°C
Dew Point Temp Definition
°C
Rel Hum Definition
%
Wind Dir Definition
10's deg

Wind Spd Definition
km/h
Visibility Definition
km
Stn Press Definition
kPa
Hmdx Definition


Wind Chill Definition


Weather Definition


TIME
00:00 Legend Double Dagger -5.9 -9.0 79 12 4 16.1 101.11   -8 LegendNANA
01:00 Legend Double Dagger -5.7 -8.5 81 14 5 16.1 101.13   -8 LegendNANA
02:00 Legend Double Dagger -5.3 -8.3 80   0 16.1 101.15     LegendNANA
03:00 Legend Double Dagger -6.6 -9.5 80 15 8 16.1 101.18   -10 LegendNANA
04:00 Legend Double Dagger -6.8 -9.6 81 15 9 16.1 101.21   -11 LegendNANA
05:00 Legend Double Dagger -7.7 -10.4 81 15 8 16.1 101.25   -12 LegendNANA
06:00 Legend Double Dagger -6.7 -10.0 78 16 8 16.1 101.26   -11 LegendNANA
07:00 Legend Double Dagger -7.6 -10.8 78 17 8 16.1 101.28   -12 LegendNANA
08:00 Legend Double Dagger -5.8 -9.5 75 16 8 16.1 101.29   -10 LegendNANA
09:00 Legend Double Dagger -4.5 -8.6 73   0 16.1 101.29     LegendNANA
10:00 Legend Double Dagger -4.2 -8.3 73 18 9 16.1 101.30   -8 LegendNANA
11:00 Legend Double Dagger -3.9 -8.4 71 LegendMM 4 16.1 101.31   -6 LegendNANA
12:00 Legend Double Dagger -4.6 -8.5 74 15 8 16.1 101.31   -8 LegendNANA
13:00 Legend Double Dagger -6.4 -9.7 78 14 8 16.1 101.33   -10 LegendNANA
14:00 Legend Double Dagger -4.3 -8.3 74 LegendMM 4 16.1 101.36   -6 LegendNANA
15:00 Legend Double Dagger -4.3 -7.4 79 12 4 16.1 101.42   -6 LegendNANA
16:00 Legend Double Dagger -3.9 -7.5 76 18 5 16.1 101.45   -6 LegendNANA
17:00 Legend Double Dagger -3.7 -7.2 77 19 11 16.1 101.47   -8 LegendNANA
18:00 Legend Double Dagger -3.6 -7.6 74 20 11 16.1 101.48   -8 LegendNANA
19:00 Legend Double Dagger -4.1 -7.7 76 17 9 16.1 101.50   -8 LegendNANA
20:00 Legend Double Dagger -3.7 -8.5 69 12 5 16.1 101.53   -6 LegendNANA
21:00 Legend Double Dagger -3.9 -6.8 81 7 8 16.1 101.54   -7 LegendNANA
22:00 Legend Double Dagger -4.4 -5.7 91 7 9 4.0 101.55   -8 Snow
23:00 Legend Double Dagger -5.3 -6.7 90 15 4 16.1 101.56   -7 Snow

Notes on Data Quality.

Legend

  • E = Estimated
  • M = Missing
  • NA = Not Available
  • ‡ = Partner data that is not subject to review by the National Climate Archives
Date modified: